FW6402 Weather Reports


Display with metric or nautical units.
time (UTC)temp
F
wind
direction
speed
MPH
gust
MPH
rain 1hr
in
rain 24hr
in
rain mn
in
humidity
%
barometer
mb
20260831182935 74 288 2.0 4.0 0.00 0.00 0.00 57 1012.0
20260831182432 73 15 1.0 6.0 0.00 0.00 0.00 58 1012.0
20260831181953 73 253 3.0 6.0 0.00 0.00 0.00 58 1012.1
20260831181426 73 245 1.0 4.0 0.00 0.00 0.00 59 1012.2
20260831180944 72 221 1.0 4.0 0.00 0.00 0.00 61 1012.2
20260831180444 70 144 1.0 6.0 0.00 0.00 0.00 63 1012.3
20260831175920 70 216 2.0 6.0 0.00 0.00 0.00 62 1012.4
20260831175417 70 204 2.0 6.0 0.00 0.00 0.00 64 1012.4
20260831174944 70 204 1.0 3.0 0.00 0.00 0.00 64 1012.5
20260831174441 70 134 1.0 3.0 0.00 0.00 0.00 65 1012.5
20260831173938 69 75 0.0 4.0 0.00 0.00 0.00 65 1012.6
20260831173434 69 127 1.0 4.0 0.00 0.00 0.00 65 1012.6
20260831172927 68 176 1.0 3.0 0.00 0.00 0.00 68 1012.7
20260831172445 67 139 0.0 3.0 0.00 0.00 0.00 68 1012.8
20260831171921 67 206 1.0 3.0 0.00 0.00 0.00 70 1012.8
20260831171423 66 207 1.0 3.0 0.00 0.00 0.00 72 1012.8
20260831170921 66 271 2.0 3.0 0.00 0.00 0.00 71 1012.8
20260831170418 66 259 1.0 3.0 0.00 0.00 0.00 71 1012.9
20260831165944 66 214 1.0 2.0 0.00 0.00 0.00 70 1012.9
20260831165444 66 120 0.0 2.0 0.00 0.00 0.00 72 1012.9
20260831164941 65 153 1.0 3.0 0.00 0.00 0.00 74 1012.9
20260831164417 64 236 1.0 3.0 0.00 0.00 0.00 73 1013.0
20260831163938 64 224 0.0 2.0 0.00 0.00 0.00 74 1013.0
20260831163436 64 259 1.0 2.0 0.00 0.00 0.00 73 1013.0
20260831162956 64 217 0.0 1.0 0.00 0.00 0.00 73 1013.1
20260831162442 62 200 0.0 0.0 0.00 0.00 0.00 75 1013.1
20260831161939 62 224 0.0 0.0 0.00 0.00 0.00 75 1013.1
20260831161437 61 229 0.0 0.0 0.00 0.00 0.00 76 1013.2
20260831160953 61 259 0.0 0.0 0.00 0.00 0.00 75 1013.4
20260831160429 61 236 0.0 1.0 0.00 0.00 0.00 75 1013.4
20260831155950 60 139 0.0 1.0 0.00 0.00 0.00 76 1013.4
20260831155445 60 267 0.0 1.0 0.00 0.00 0.00 77 1013.4
20260831154921 59 175 0.0 1.0 0.00 0.00 0.00 77 1013.5
20260831154418 58 146 0.0 2.0 0.00 0.00 0.00 78 1013.5
20260831154005 58 184 0.0 2.0 0.00 0.00 0.00 79 1013.4
20260831153441 58 205 0.0 2.0 0.00 0.00 0.00 77 1013.5
20260831152939 58 153 0.0 2.0 0.00 0.00 0.00 79 1013.5
20260831152436 57 105 1.0 2.0 0.00 0.00 0.00 79 1013.7
20260831151923 57 152 1.0 3.0 0.00 0.00 0.00 80 1013.6
20260831151455 56 158 0.0 3.0 0.00 0.00 0.00 82 1013.7
20260831150941 56 216 0.0 1.0 0.00 0.00 0.00 80 1013.7
20260831150440 57 140 0.0 1.0 0.00 0.00 0.00 79 1013.7
20260831145939 58 140 0.0 1.0 0.00 0.00 0.00 80 1013.7
20260831145417 57 140 0.0 1.0 0.00 0.00 0.00 82 1013.7
20260831145006 57 139 0.0 1.0 0.00 0.00 0.00 83 1013.7
20260831144442 56 146 0.0 0.0 0.00 0.00 0.00 83 1013.7
20260831143940 56 147 0.0 0.0 0.00 0.00 0.00 84 1013.7
20260831143436 55 152 0.0 0.0 0.00 0.00 0.00 85 1013.7
20260831142933 55 152 0.0 0.0 0.00 0.00 0.00 86 1013.8
20260831142428 55 151 0.0 0.0 0.00 0.00 0.00 89 1013.7
20260831141944 54 151 0.0 0.0 0.00 0.00 0.00 90 1013.7
20260831141444 53 151 0.0 0.0 0.00 0.00 0.00 90 1013.7
20260831140941 53 151 0.0 0.0 0.00 0.00 0.00 92 1013.7
20260831140419 52 151 0.0 0.0 0.00 0.00 0.00 93 1013.7
20260831135917 51 151 0.0 0.0 0.00 0.00 0.00 93 1013.8
20260831135435 51 151 0.0 0.0 0.00 0.00 0.00 93 1013.8
20260831134933 50 151 0.0 0.0 0.00 0.00 0.00 93 1013.8
20260831134500 50 151 0.0 0.0 0.00 0.00 0.00 93 1013.8
20260831133932 50 151 0.0 0.0 0.00 0.00 0.00 92 1013.8
20260831133431 50 151 0.0 0.0 0.00 0.00 0.00 93 1013.7
20260831132938 50 151 0.0 0.0 0.00 0.00 0.00 93 1013.7
20260831132455 50 151 0.0 1.0 0.00 0.00 0.00 93 1013.8
20260831131932 51 152 0.0 1.0 0.00 0.00 0.00 93 1013.8
20260831131452 50 195 0.0 0.0 0.00 0.00 0.00 93 1013.9
20260831130930 51 195 0.0 0.0 0.00 0.00 0.00 92 1013.9
20260831130427 51 195 0.0 0.0 0.00 0.00 0.00 92 1013.9
20260831125919 51 195 0.0 0.0 0.00 0.00 0.00 92 1013.9
20260831125425 51 195 0.0 0.0 0.00 0.00 0.00 92 1013.9
20260831124922 51 195 0.0 0.0 0.00 0.00 0.00 93 1014.0
20260831124435 51 154 0.0 0.0 0.00 0.00 0.00 92 1014.0
20260831123921 51 154 0.0 0.0 0.00 0.00 0.00 92 1014.0
20260831123419 51 154 0.0 0.0 0.00 0.00 0.00 92 1014.1
20260831123006 51 154 0.0 0.0 0.00 0.00 0.00 92 1014.1
20260831122442 51 154 0.0 0.0 0.00 0.00 0.00 92 1014.1
20260831121922 51 154 0.0 0.0 0.00 0.00 0.00 91 1014.2
20260831121439 51 154 0.0 0.0 0.00 0.00 0.00 91 1014.3
20260831120946 51 154 0.0 0.0 0.00 0.00 0.00 91 1014.2
20260831120440 51 154 0.0 0.0 0.00 0.00 0.00 91 1014.2
20260831115937 52 154 0.0 0.0 0.00 0.00 0.00 90 1014.3
20260831115435 52 155 0.0 0.0 0.00 0.00 0.00 90 1014.3
20260831114953 52 148 0.0 0.0 0.00 0.00 0.00 90 1014.3
20260831114440 52 148 0.0 0.0 0.00 0.00 0.00 91 1014.3
20260831113918 52 148 0.0 0.0 0.00 0.00 0.00 90 1014.4
20260831113435 53 146 0.0 0.0 0.00 0.00 0.00 90 1014.5
20260831112930 53 146 0.0 0.0 0.00 0.00 0.00 90 1014.4
20260831112426 53 105 0.0 0.0 0.00 0.00 0.00 90 1014.5
20260831111926 54 104 0.0 0.0 0.00 0.00 0.00 91 1014.4
20260831111423 54 105 0.0 0.0 0.00 0.00 0.00 91 1014.5
20260831110916 53 78 0.0 0.0 0.00 0.00 0.00 91 1014.6
20260831110435 53 78 0.0 0.0 0.00 0.00 0.00 91 1014.6
20260831105941 53 78 0.0 0.0 0.00 0.00 0.00 91 1014.6
20260831105420 53 78 0.0 0.0 0.00 0.00 0.00 91 1014.6
20260831104919 53 78 0.0 0.0 0.00 0.00 0.00 90 1014.7
20260831104418 54 78 0.0 0.0 0.00 0.00 0.00 90 1014.7
20260831103936 54 78 0.0 0.0 0.00 0.00 0.00 90 1014.7
20260831103443 54 78 0.0 0.0 0.00 0.00 0.00 89 1014.7
20260831102942 54 78 0.0 0.0 0.00 0.00 0.00 89 1014.8
20260831102418 54 78 0.0 0.0 0.00 0.00 0.00 89 1014.9
20260831101932 54 78 0.0 0.0 0.00 0.00 0.00 89 1014.9
20260831101459 54 78 0.0 0.0 0.00 0.00 0.00 89 1014.9
20260831100952 55 78 0.0 0.0 0.00 0.00 0.00 89 1015.0
20260831100453 55 78 0.0 0.0 0.00 0.00 0.00 89 1014.9
20260831095929 55 78 0.0 0.0 0.00 0.00 0.00 89 1015.0
20260831095449 55 78 0.0 0.0 0.00 0.00 0.00 89 1015.0
20260831094919 55 78 0.0 0.0 0.00 0.00 0.00 89 1015.1
20260831094440 55 78 0.0 0.0 0.00 0.00 0.00 89 1015.1
20260831093937 55 78 0.0 0.0 0.00 0.00 0.00 89 1015.2
20260831093434 55 78 0.0 0.0 0.00 0.00 0.00 88 1015.3
20260831092932 55 78 0.0 0.0 0.00 0.00 0.00 88 1015.3
20260831092432 55 78 0.0 0.0 0.00 0.00 0.00 87 1015.4
20260831091927 56 78 0.0 0.0 0.00 0.00 0.00 87 1015.4
20260831091426 56 78 0.0 0.0 0.00 0.00 0.00 87 1015.4
20260831090918 56 78 0.0 0.0 0.00 0.00 0.00 88 1015.4
20260831090445 56 78 0.0 0.0 0.00 0.00 0.00 87 1015.5
20260831085941 56 78 0.0 0.0 0.00 0.00 0.00 87 1015.4
20260831085418 56 78 0.0 0.0 0.00 0.00 0.00 87 1015.6
20260831084932 56 78 0.0 0.0 0.00 0.00 0.00 87 1015.5
20260831084439 56 78 0.0 0.0 0.00 0.00 0.00 87 1015.5
20260831083937 56 78 0.0 0.0 0.00 0.00 0.00 86 1015.7
20260831083436 56 78 0.0 0.0 0.00 0.00 0.00 86 1015.7
20260831082934 57 78 0.0 0.0 0.00 0.00 0.00 85 1015.8
20260831082432 57 78 0.0 0.0 0.00 0.00 0.00 85 1015.9
20260831081939 57 165 0.0 0.0 0.00 0.00 0.00 85 1015.9
20260831081436 57 165 0.0 0.0 0.00 0.00 0.00 85 1016.0
20260831080932 58 86 0.0 0.0 0.00 0.00 0.00 85 1016.0
20260831080449 58 86 0.0 0.0 0.00 0.00 0.00 85 1016.0
20260831075923 58 85 0.0 0.0 0.00 0.00 0.00 84 1016.0
20260831075443 58 85 0.0 0.0 0.00 0.00 0.00 84 1016.1
20260831074942 58 85 0.0 0.0 0.00 0.00 0.00 84 1016.1
20260831074440 58 85 0.0 0.0 0.00 0.00 0.00 84 1016.2
20260831073918 58 86 0.0 0.0 0.00 0.00 0.00 83 1016.2
20260831073435 59 85 0.0 0.0 0.00 0.00 0.00 83 1016.2
20260831072942 59 85 0.0 0.0 0.00 0.00 0.00 83 1016.3
20260831072440 59 86 0.0 0.0 0.00 0.00 0.00 83 1016.4
20260831071957 59 85 0.0 0.0 0.00 0.00 0.00 82 1016.4
20260831071429 59 85 0.0 0.0 0.00 0.00 0.00 82 1016.4
20260831070927 59 85 0.0 0.0 0.00 0.00 0.00 82 1016.5
20260831070453 59 86 0.0 0.0 0.00 0.00 0.00 81 1016.5
20260831065926 60 86 0.0 0.0 0.00 0.00 0.00 81 1016.5
20260831065417 60 86 0.0 0.0 0.00 0.00 0.00 81 1016.6
20260831064944 60 86 0.0 0.0 0.00 0.00 0.00 80 1016.7
20260831064423 60 86 0.0 0.0 0.00 0.00 0.00 79 1016.8
20260831063918 60 86 0.0 0.0 0.00 0.00 0.00 79 1016.8
20260831063434 61 86 0.0 0.0 0.00 0.00 0.00 79 1016.8
20260831062932 61 205 0.0 0.0 0.00 0.00 0.00 78 1016.8
20260831062449 61 175 0.0 0.0 0.00 0.00 0.00 78 1016.8
20260831061927 61 247 0.0 0.0 0.00 0.00 0.00 79 1016.8
20260831061424 61 71 0.0 0.0 0.00 0.00 0.00 78 1016.8
20260831060944 61 38 0.0 1.0 0.00 0.00 0.00 78 1016.9
20260831060419 61 38 0.0 1.0 0.00 0.00 0.00 78 1017.0
20260831055944 62 38 0.0 1.0 0.00 0.00 0.00 77 1017.0
20260831055442 62 38 0.0 1.0 0.00 0.00 0.00 76 1017.0
20260831054921 62 39 0.0 1.0 0.00 0.00 0.00 76 1017.1
20260831054419 63 38 0.0 1.0 0.00 0.00 0.00 75 1017.1
20260831053937 63 278 0.0 4.0 0.00 0.00 0.00 74 1017.1
20260831053440 63 278 1.0 4.0 0.00 0.00 0.00 74 1017.1
20260831052935 64 236 0.0 1.0 0.00 0.00 0.00 74 1017.2
20260831052432 64 224 0.0 1.0 0.00 0.00 0.00 73 1017.2
20260831051930 64 224 0.0 1.0 0.00 0.00 0.00 73 1017.3
20260831051457 64 185 0.0 2.0 0.00 0.00 0.00 72 1017.3
20260831050934 64 278 0.0 2.0 0.00 0.00 0.00 72 1017.4
20260831050433 64 229 0.0 1.0 0.00 0.00 0.00 72 1017.5
20260831045959 64 247 0.0 1.0 0.00 0.00 0.00 72 1017.5
20260831045435 64 353 0.0 1.0 0.00 0.00 0.00 71 1017.5
20260831044929 65 276 0.0 6.0 0.00 0.00 0.00 71 1017.6
20260831044428 65 269 1.0 6.0 0.00 0.00 0.00 71 1017.6
20260831043927 65 319 0.0 1.0 0.00 0.00 0.00 70 1017.6
20260831043427 65 262 0.0 3.0 0.00 0.00 0.00 70 1017.5
20260831042934 65 264 1.0 3.0 0.00 0.00 0.00 70 1017.5
20260831042452 65 252 1.0 2.0 0.00 0.00 0.00 70 1017.6
20260831041928 65 260 0.0 2.0 0.00 0.00 0.00 69 1017.6
20260831041514 65 85 1.0 2.0 0.00 0.00 0.00 69 1017.6
20260831040928 65 245 0.0 1.0 0.00 0.00 0.00 68 1017.7
20260831040429 65 246 0.0 1.0 0.00 0.00 0.00 68 1017.6
20260831035926 65 192 0.0 2.0 0.00 0.00 0.00 68 1017.7
20260831035422 65 8 0.0 2.0 0.00 0.00 0.00 67 1017.6
20260831034933 66 271 0.0 2.0 0.00 0.00 0.00 67 1017.6
20260831034433 66 13 1.0 2.0 0.00 0.00 0.00 67 1017.6
20260831033930 66 110 0.0 1.0 0.00 0.00 0.00 67 1017.7
20260831033427 66 110 0.0 1.0 0.00 0.00 0.00 66 1017.6
20260831032918 66 266 0.0 1.0 0.00 0.00 0.00 66 1017.6
20260831032444 66 266 0.0 1.0 0.00 0.00 0.00 65 1017.6
20260831031923 67 266 0.0 3.0 0.00 0.00 0.00 65 1017.6
20260831031419 67 49 0.0 1.0 0.00 0.00 0.00 64 1017.5
20260831030917 67 329 0.0 1.0 0.00 0.00 0.00 64 1017.6
20260831030500 67 269 0.0 1.0 0.00 0.00 0.00 63 1017.6
20260831025936 68 319 0.0 2.0 0.00 0.00 0.00 62 1017.5
20260831025433 68 307 0.0 2.0 0.00 0.00 0.00 62 1017.5
20260831024933 68 346 0.0 2.0 0.00 0.00 0.00 62 1017.5
20260831024429 69 274 0.0 4.0 0.00 0.00 0.00 61 1017.6
20260831023928 69 356 2.0 4.0 0.00 0.00 0.00 60 1017.6
20260831023424 69 64 1.0 4.0 0.00 0.00 0.00 60 1017.6
20260831022921 69 286 1.0 4.0 0.00 0.00 0.00 60 1017.6
20260831022434 70 259 1.0 5.0 0.00 0.00 0.00 59 1017.7
20260831021931 70 53 0.0 6.0 0.00 0.00 0.00 58 1017.7
20260831021455 70 307 1.0 9.0 0.00 0.00 0.00 58 1017.7
20260831020932 70 282 1.0 5.0 0.00 0.00 0.00 58 1017.9
20260831020431 70 115 2.0 5.0 0.00 0.00 0.00 57 1017.9
20260831015951 71 27 1.0 4.0 0.00 0.00 0.00 57 1017.8
20260831015427 71 302 1.0 4.0 0.00 0.00 0.00 56 1017.7
20260831014916 71 249 1.0 6.0 0.00 0.00 0.00 56 1017.9
20260831014441 72 283 2.0 7.0 0.00 0.00 0.00 55 1017.9
20260831013936 72 267 2.0 7.0 0.00 0.00 0.00 54 1017.9
20260831013434 72 38 0.0 6.0 0.00 0.00 0.00 53 1018.0
20260831012933 73 72 2.0 6.0 0.00 0.00 0.00 53 1018.1
20260831012431 73 345 2.0 6.0 0.00 0.00 0.00 53 1018.2
20260831011928 74 267 2.0 5.0 0.00 0.00 0.00 51 1018.2
20260831011450 74 266 1.0 6.0 0.00 0.00 0.00 52 1018.1
20260831010926 74 297 1.0 6.0 0.00 0.00 0.00 51 1018.2
20260831010418 74 243 1.0 5.0 0.00 0.00 0.00 51 1018.3
20260831005942 74 266 1.0 5.0 0.00 0.00 0.00 51 1018.4
20260831005420 74 240 2.0 4.0 0.00 0.00 0.00 51 1018.4
20260831004939 74 220 1.0 5.0 0.00 0.00 0.00 51 1018.5
20260831004441 74 269 0.0 7.0 0.00 0.00 0.00 52 1018.5
20260831003917 73 271 3.0 7.0 0.00 0.00 0.00 51 1018.6
20260831003434 73 283 2.0 9.0 0.00 0.00 0.00 51 1018.5
20260831002933 73 48 5.0 9.0 0.00 0.00 0.00 50 1018.5
20260831002433 73 329 2.0 8.0 0.00 0.00 0.00 51 1018.6
20260831001928 73 207 2.0 10.0 0.00 0.00 0.00 51 1018.7
20260831001448 75 36 3.0 9.0 0.00 0.00 0.00 49 1018.7
20260831000925 74 254 0.0 4.0 0.00 0.00 0.00 50 1018.7
20260831000421 74 357 2.0 5.0 0.00 0.00 0.00 50 1018.7
20260831000004 73 75 2.0 5.0 0.00 0.00 0.00 49 1018.7
20260830235441 74 259 2.0 9.0 0.00 0.00 0.00 49 1018.7
20260830234918 75 273 3.0 7.0 0.00 0.00 0.00 48 1018.8
20260830234416 75 145 1.0 4.0 0.00 0.00 0.00 48 1018.8
20260830233933 75 260 1.0 5.0 0.00 0.00 0.00 50 1018.9
20260830233432 74 257 2.0 5.0 0.00 0.00 0.00 50 1019.1
20260830232937 73 230 1.0 7.0 0.00 0.00 0.00 51 1019.0
20260830232433 73 38 2.0 7.0 0.00 0.00 0.00 50 1019.2
20260830232000 73 160 3.0 13.0 0.00 0.00 0.00 50 1019.2
20260830231442 73 339 4.0 13.0 0.00 0.00 0.00 50 1019.2
20260830230919 74 6 1.0 7.0 0.00 0.00 0.00 49 1019.2
20260830230416 73 262 2.0 7.0 0.00 0.00 0.00 50 1019.2
20260830225942 72 254 2.0 7.0 0.00 0.00 0.00 51 1019.2
20260830225457 73 84 5.0 7.0 0.00 0.00 0.00 49 1019.4
20260830224934 73 30 1.0 5.0 0.00 0.00 0.00 50 1019.5
20260830224501 72 260 1.0 7.0 0.00 0.00 0.00 52 1019.6
20260830223936 72 98 4.0 7.0 0.00 0.00 0.00 50 1019.7
20260830223434 73 27 2.0 7.0 0.00 0.00 0.00 50 1019.7
20260830222926 73 276 2.0 6.0 0.00 0.00 0.00 49 1019.8
20260830222422 73 214 2.0 7.0 0.00 0.00 0.00 50 1019.9
20260830221922 72 277 3.0 7.0 0.00 0.00 0.00 51 1020.1
20260830221418 72 43 1.0 7.0 0.00 0.00 0.00 52 1020.2
20260830220935 71 276 4.0 11.0 0.00 0.00 0.00 52 1020.2
20260830220432 71 56 4.0 11.0 0.00 0.00 0.00 52 1020.2
20260830215931 72 94 2.0 7.0 0.00 0.00 0.00 51 1020.4
20260830215435 72 298 2.0 6.0 0.00 0.00 0.00 50 1020.6
20260830214934 72 32 3.0 7.0 0.00 0.00 0.00 52 1020.5
20260830214432 71 88 2.0 8.0 0.00 0.00 0.00 52 1020.6
20260830213956 72 261 1.0 7.0 0.00 0.00 0.00 51 1020.6
20260830213439 72 264 2.0 7.0 0.00 0.00 0.00 51 1020.7
20260830212944 72 95 2.0 7.0 0.00 0.00 0.00 50 1020.7
20260830212441 72 52 1.0 4.0 0.00 0.00 0.00 52 1020.7
20260830211957 71 245 1.0 8.0 0.00 0.00 0.00 52 1020.8
20260830211434 71 236 2.0 8.0 0.00 0.00 0.00 51 1020.9
20260830210931 71 260 1.0 10.0 0.00 0.00 0.00 52 1020.9
20260830210418 71 274 5.0 10.0 0.00 0.00 0.00 51 1020.9
20260830205929 71 276 3.0 6.0 0.00 0.00 0.00 52 1020.9
20260830205436 71 264 1.0 5.0 0.00 0.00 0.00 52 1020.9
20260830204932 71 131 2.0 8.0 0.00 0.00 0.00 53 1021.0
20260830204422 70 243 2.0 5.0 0.00 0.00 0.00 55 1021.1
20260830203922 70 47 1.0 8.0 0.00 0.00 0.00 54 1021.2
20260830203420 70 262 3.0 8.0 0.00 0.00 0.00 54 1021.3
20260830202918 69 268 3.0 11.0 0.00 0.00 0.00 56 1021.5
20260830202435 69 22 2.0 11.0 0.00 0.00 0.00 55 1021.4
20260830201943 69 123 3.0 11.0 0.00 0.00 0.00 56 1021.6
20260830201421 69 335 3.0 9.0 0.00 0.00 0.00 56 1021.6
20260830200953 70 44 3.0 7.0 0.00 0.00 0.00 56 1021.6
20260830200440 69 54 2.0 7.0 0.00 0.00 0.00 54 1021.6
20260830195936 69 23 1.0 4.0 0.00 0.00 0.00 56 1021.7
20260830195430 69 89 2.0 5.0 0.00 0.00 0.00 56 1021.7
20260830194926 68 230 2.0 6.0 0.00 0.00 0.00 58 1021.8
20260830194446 68 25 4.0 6.0 0.00 0.00 0.00 56 1021.8
20260830193941 68 75 3.0 5.0 0.00 0.00 0.00 57 1021.7
20260830193439 68 81 2.0 7.0 0.00 0.00 0.00 57 1021.7
20260830192953 68 85 3.0 7.0 0.00 0.00 0.00 56 1021.8
20260830192429 68 260 1.0 7.0 0.00 0.00 0.00 57 1021.9
20260830191928 68 272 2.0 6.0 0.00 0.00 0.00 56 1022.0
20260830191454 68 173 1.0 6.0 0.00 0.00 0.00 57 1022.1
20260830190923 69 37 1.0 5.0 0.00 0.00 0.00 58 1022.0
20260830190434 67 30 2.0 5.0 0.00 0.00 0.00 60 1022.2
20260830185940 67 13 1.0 6.0 0.00 0.00 0.00 61 1022.2
20260830185437 66 28 3.0 6.0 0.00 0.00 0.00 61 1022.3
20260830184934 66 228 2.0 6.0 0.00 0.00 0.00 61 1022.4
20260830184432 65 284 2.0 6.0 0.00 0.00 0.00 61 1022.2
20260830183932 65 4 2.0 7.0 0.00 0.00 0.00 61 1022.3
20260830183423 65 70 4.0 7.0 0.00 0.00 0.00 60 1022.3